| time (UTC) | temp C | wind direction | speed KPH | gust KPH | rain 1hr cm | rain 24hr cm | rain mn cm | humidity % | barometer mb |
| 20260504081039 | 2 | 0.0 | 0.0 | 0.00 | 0.00 | 0.00 | 90 | ||
| 20260504045019 | 6 | 296 | 0.0 | 0.0 | 0.00 | 0.00 | 0.00 | 82 | |
| 20260504044019 | 6 | 0.0 | 0.0 | 0.00 | 0.00 | 0.00 | 81 | ||
| 20260504043019 | 6 | 0.0 | 0.0 | 0.00 | 0.00 | 0.00 | 79 | ||
| 20260504042019 | 7 | 0.0 | 0.0 | 0.00 | 0.00 | 0.00 | 78 | ||
| 20260504041020 | 7 | 0.0 | 0.0 | 0.00 | 0.00 | 0.00 | 76 | ||
| 20260504040037 | 7 | 0.0 | 0.0 | 0.00 | 0.00 | 0.00 | 75 | ||
| 20260504035040 | 7 | 0.0 | 0.0 | 0.00 | 0.00 | 0.00 | 75 | ||
| 20260504034020 | 7 | 0.0 | 0.0 | 0.00 | 0.00 | 0.00 | 75 | ||
| 20260504033020 | 7 | 0.0 | 0.0 | 0.00 | 0.00 | 0.00 | 74 | ||
| 20260504032017 | 7 | 330 | 0.0 | 1.6 | 0.00 | 0.00 | 0.00 | 73 | |
| 20260504031017 | 7 | 0.0 | 0.0 | 0.00 | 0.00 | 0.00 | 73 | ||
| 20260504030018 | 7 | 0.0 | 0.0 | 0.00 | 0.00 | 0.00 | 72 | ||
| 20260504025021 | 7 | 0.0 | 0.0 | 0.00 | 0.00 | 0.00 | 72 | ||
| 20260504024021 | 7 | 0.0 | 0.0 | 0.00 | 0.00 | 0.00 | 72 | ||
| 20260504023020 | 7 | 0.0 | 0.0 | 0.00 | 0.00 | 0.00 | 71 | ||
| 20260504022018 | 7 | 318 | 0.0 | 3.2 | 0.00 | 0.00 | 0.00 | 70 | |
| 20260504021018 | 7 | 0.0 | 0.0 | 0.00 | 0.00 | 0.00 | 71 | ||
| 20260504020019 | 7 | 0.0 | 0.0 | 0.00 | 0.00 | 0.00 | 69 | ||
| 20260504015039 | 8 | 0.0 | 0.0 | 0.00 | 0.00 | 0.00 | 68 | ||
| 20260504014019 | 8 | 0.0 | 0.0 | 0.00 | 0.00 | 0.00 | 66 | ||
| 20260504013019 | 9 | 0.0 | 0.0 | 0.00 | 0.00 | 0.00 | 63 | ||
| 20260504012042 | 10 | 0.0 | 0.0 | 0.00 | 0.00 | 0.00 | 57 | ||
| 20260504011021 | 10 | 2 | 0.0 | 3.2 | 0.00 | 0.00 | 0.00 | 53 | |
| 20260504010020 | 11 | 357 | 0.0 | 3.2 | 0.00 | 0.00 | 0.00 | 52 | |
| 20260504005020 | 10 | 291 | 3.2 | 6.4 | 0.00 | 0.00 | 0.00 | 53 | |
| 20260504004017 | 10 | 294 | 3.2 | 14.5 | 0.00 | 0.00 | 0.00 | 56 | |
| 20260504003017 | 10 | 223 | 0.0 | 1.6 | 0.00 | 0.00 | 0.00 | 59 | |
| 20260504002017 | 10 | 0.0 | 0.0 | 0.00 | 0.00 | 0.00 | 58 | ||
| 20260504001020 | 10 | 0.0 | 0.0 | 0.00 | 0.00 | 0.00 | 56 | ||
| 20260504000021 | 11 | 0.0 | 0.0 | 0.00 | 0.00 | 0.00 | 53 | ||
| 20260503235019 | 11 | 0.0 | 0.0 | 0.00 | 0.00 | 0.00 | 49 | ||
| 20260503234021 | 12 | 296 | 0.0 | 3.2 | 0.00 | 0.00 | 0.00 | 46 | |
| 20260503233018 | 12 | 214 | 1.6 | 6.4 | 0.00 | 0.00 | 0.00 | 46 | |
| 20260503232019 | 12 | 266 | 0.0 | 3.2 | 0.00 | 0.00 | 0.00 | 46 | |
| 20260503231039 | 12 | 229 | 1.6 | 6.4 | 0.00 | 0.00 | 0.00 | 45 | |
| 20260503230039 | 12 | 248 | 3.2 | 6.4 | 0.00 | 0.00 | 0.00 | 46 | |
| 20260503225019 | 12 | 264 | 3.2 | 11.3 | 0.00 | 0.00 | 0.00 | 46 | |
| 20260503224019 | 12 | 258 | 4.8 | 9.7 | 0.00 | 0.00 | 0.00 | 45 | |
| 20260503223019 | 12 | 312 | 4.8 | 12.9 | 0.00 | 0.00 | 0.00 | 44 | |
| 20260503222041 | 12 | 286 | 3.2 | 12.9 | 0.00 | 0.00 | 0.00 | 45 | |
| 20260503221017 | 12 | 266 | 6.4 | 14.5 | 0.00 | 0.00 | 0.00 | 44 | |
| 20260503220017 | 13 | 302 | 6.4 | 17.7 | 0.00 | 0.00 | 0.00 | 44 | |
| 20260503215020 | 12 | 300 | 8.0 | 16.1 | 0.00 | 0.00 | 0.00 | 44 | |
| 20260503214020 | 12 | 278 | 6.4 | 12.9 | 0.00 | 0.00 | 0.00 | 45 | |
| 20260503213040 | 12 | 312 | 6.4 | 16.1 | 0.00 | 0.00 | 0.00 | 46 | |
| 20260503212017 | 12 | 296 | 8.0 | 14.5 | 0.00 | 0.00 | 0.00 | 46 | |
| 20260503211018 | 12 | 268 | 8.0 | 19.3 | 0.00 | 0.00 | 0.00 | 46 | |
| 20260503210018 | 12 | 327 | 8.0 | 16.1 | 0.00 | 0.00 | 0.00 | 45 | |
| 20260503205018 | 12 | 311 | 6.4 | 16.1 | 0.00 | 0.00 | 0.00 | 44 | |
| 20260503204020 | 12 | 300 | 11.3 | 20.9 | 0.00 | 0.00 | 0.00 | 42 | |
| 20260503203019 | 12 | 292 | 8.0 | 16.1 | 0.00 | 0.00 | 0.00 | 42 | |
| 20260503202020 | 12 | 269 | 9.7 | 20.9 | 0.00 | 0.00 | 0.00 | 41 | |
| 20260503201019 | 12 | 292 | 4.8 | 12.9 | 0.00 | 0.00 | 0.00 | 41 | |
| 20260503200019 | 12 | 285 | 8.0 | 17.7 | 0.00 | 0.00 | 0.00 | 40 | |
| 20260503195019 | 12 | 273 | 6.4 | 12.9 | 0.00 | 0.00 | 0.00 | 41 | |
| 20260503194019 | 11 | 312 | 8.0 | 17.7 | 0.00 | 0.00 | 0.00 | 40 | |
| 20260503193017 | 11 | 340 | 4.8 | 11.3 | 0.00 | 0.00 | 0.00 | 41 | |
| 20260503192017 | 11 | 319 | 6.4 | 17.7 | 0.00 | 0.00 | 0.00 | 40 | |
| 20260503191022 | 11 | 330 | 8.0 | 16.1 | 0.00 | 0.00 | 0.00 | 40 | |
| 20260503190020 | 11 | 299 | 9.7 | 19.3 | 0.00 | 0.00 | 0.00 | 40 | |
| 20260503185101 | 12 | 276 | 8.0 | 17.7 | 0.00 | 0.00 | 0.00 | 40 | |
| 20260503184039 | 11 | 285 | 9.7 | 16.1 | 0.00 | 0.00 | 0.00 | 39 | |
| 20260503183017 | 11 | 297 | 9.7 | 16.1 | 0.00 | 0.00 | 0.00 | 39 | |
| 20260503182019 | 11 | 321 | 9.7 | 17.7 | 0.00 | 0.00 | 0.00 | 40 | |
| 20260503181019 | 10 | 297 | 9.7 | 17.7 | 0.00 | 0.00 | 0.00 | 41 | |
| 20260503180018 | 10 | 324 | 8.0 | 17.7 | 0.00 | 0.00 | 0.00 | 41 | |
| 20260503175018 | 10 | 315 | 8.0 | 14.5 | 0.00 | 0.00 | 0.00 | 41 | |
| 20260503174018 | 10 | 283 | 8.0 | 17.7 | 0.00 | 0.00 | 0.00 | 42 | |
| 20260503173020 | 10 | 308 | 9.7 | 20.9 | 0.00 | 0.00 | 0.00 | 42 | |
| 20260503172019 | 10 | 278 | 9.7 | 19.3 | 0.00 | 0.00 | 0.00 | 41 | |
| 20260503171039 | 9 | 320 | 8.0 | 17.7 | 0.00 | 0.00 | 0.00 | 41 | |
| 20260503131020 | 6 | 301 | 6.4 | 14.5 | 0.00 | 0.00 | 0.00 | 56 |